Вернуться в каталог

JILIN-01-05

АктивенНаукаSSO
NORAD 43023·PAYLOAD·🇨🇳 China

Запущен Nov 21, 2017 с Taiyuan Satellite Launch Center

Loading…

Ближайшие Пролёты (ближайшие 24 часа)

TLE

СвежийSource: Space-Track

Эпоха: Sep 14, 2026, 21:57 UTC

1 43023U 17074B   26257.91479498  .00008653  00000-0  25628-3 0  9992
2 43023  97.4911   5.3850 0003509 271.2011  88.8830 15.35113871487769

Отслеживайте JILIN-01-05 в реальном времени с AllMySat

Download on the App Store